,,,PA_Meas_PMT16A,,PR_Meas_QMR101_102,,RH_Meas_QMH101,,SR_Meas_QMS101,,TA_Meas_QMH101,,GenWind,,GenWind,
date,time,status,PA,status,PR,status,RH,status,SR,status,TA,status,DirAvg,status,SpdAvg,
2010-04-30, 00:00:04,VALID,1006.84,VALID,0,VALID,94.3311,VALID,0,VALID,25.3,VALID,67,VALID,0.290625,
2010-04-30, 00:01:04,VALID,1006.84,VALID,0,VALID,94.1862,VALID,0,VALID,25.2416,VALID,65,VALID,0.409766,
2010-04-30, 00:02:04,VALID,1006.85,VALID,0,VALID,94.1556,VALID,0,VALID,25.1832,VALID,65,VALID,0.421484,
2010-04-30, 00:03:04,VALID,1006.83,VALID,0,VALID,94.3006,VALID,0,VALID,25.1442,VALID,65,VALID,0.5375,
2010-04-30, 00:04:04,VALID,1006.89,VALID,0,VALID,94.415,VALID,0,VALID,25.0858,VALID,65,VALID,0.491016,
2010-04-30, 00:05:04,VALID,1006.91,VALID,0,VALID,94.5752,VALID,0,VALID,25.0274,VALID,52,VALID,0.401172,
2010-04-30, 00:06:04,VALID,1006.93,VALID,0,VALID,94.7431,VALID,0,VALID,25.0079,VALID,52,VALID,0.460547,
2010-04-30, 00:07:04,VALID,1006.94,VALID,0,VALID,94.9185,VALID,0,VALID,24.9904,VALID,52,VALID,0.351563,
2010-04-30, 00:08:04,VALID,1006.99,VALID,0,VALID,95.0406,VALID,0,VALID,24.93,VALID,52,VALID,0.100391,
2010-04-30, 00:09:04,VALID,1006.99,VALID,0,VALID,95.155,VALID,0,VALID,24.93,VALID,52,VALID,0,
2010-04-30, 00:10:04,VALID,1007.01,VALID,0,VALID,95.2542,VALID,0,VALID,24.9106,VALID,52,VALID,0.0015625,
2010-04-30, 00:11:04,VALID,1007.03,VALID,0,VALID,95.3686,VALID,0,VALID,24.8911,VALID,52,VALID,0.333984,
2010-04-30, 00:12:04,VALID,1007.04,VALID,0,VALID,95.4678,VALID,0,VALID,24.8911,VALID,53,VALID,0.221875,
2010-04-30, 00:13:04,VALID,1007.06,VALID,0,VALID,95.5212,VALID,0,VALID,24.8716,VALID,53,VALID,0.271875,
2010-04-30, 00:14:04,VALID,1007.11,VALID,0,VALID,95.5746,VALID,0,VALID,24.8522,VALID,53,VALID,0,
2010-04-30, 00:15:04,VALID,1007.15,VALID,0,VALID,95.5975,VALID,0,VALID,24.8522,VALID,58,VALID,0.530469,
2010-04-30, 00:16:04,VALID,1007.19,VALID,0,VALID,95.6662,VALID,0,VALID,24.8735,VALID,59,VALID,0.45625,
2010-04-30, 00:17:04,VALID,1007.18,VALID,0,VALID,95.7196,VALID,0,VALID,24.8327,VALID,59,VALID,0.472656,
2010-04-30, 00:18:04,VALID,1007.2,VALID,0,VALID,95.7806,VALID,0,VALID,24.8327,VALID,59,VALID,0.334766,
2010-04-30, 00:19:04,VALID,1007.16,VALID,0,VALID,95.8416,VALID,0,VALID,24.8522,VALID,59,VALID,0.283203,
2010-04-30, 00:20:04,VALID,1007.17,VALID,0,VALID,95.9103,VALID,0,VALID,24.8522,VALID,59,VALID,0.321094,
2010-04-30, 00:21:04,VALID,1007.17,VALID,0,VALID,95.9561,VALID,0,VALID,24.8716,VALID,113,VALID,0.601563,
2010-04-30, 00:22:04,VALID,1007.2,VALID,0,VALID,95.9866,VALID,0,VALID,24.8522,VALID,113,VALID,0.517578,
2010-04-30, 00:23:04,VALID,1007.19,VALID,0,VALID,96.0095,VALID,0,VALID,24.8327,VALID,113,VALID,0.1625,
2010-04-30, 00:24:04,VALID,1007.2,VALID,0,VALID,96.0247,VALID,0,VALID,24.8132,VALID,103,VALID,0.371484,
2010-04-30, 00:25:04,VALID,1007.17,VALID,0,VALID,96.0323,VALID,0,VALID,24.8132,VALID,38,VALID,0.577344,
2010-04-30, 00:26:04,VALID,1007.18,VALID,0,VALID,96.0552,VALID,0,VALID,24.8132,VALID,38,VALID,0.301562,
2010-04-30, 00:27:04,VALID,1007.13,VALID,0,VALID,96.0781,VALID,0,VALID,24.8132,VALID,38,VALID,0.0078125,
2010-04-30, 00:28:04,VALID,1007.1,VALID,0,VALID,96.0857,VALID,0,VALID,24.8327,VALID,38,VALID,0.00585938,
2010-04-30, 00:29:04,VALID,1007.06,VALID,0,VALID,96.101,VALID,0,VALID,24.8522,VALID,38,VALID,0,
2010-04-30, 00:30:04,VALID,1007.07,VALID,0,VALID,96.1392,VALID,0,VALID,24.9125,VALID,38,VALID,0.226953,
2010-04-30, 00:31:04,VALID,1007.03,VALID,0,VALID,96.1544,VALID,0,VALID,24.9106,VALID,38,VALID,0.0523437,
2010-04-30, 00:32:04,VALID,1007.04,VALID,0,VALID,96.1773,VALID,0,VALID,24.93,VALID,38,VALID,0.198047,
2010-04-30, 00:33:04,VALID,1007.08,VALID,0,VALID,96.1697,VALID,0,VALID,24.9514,VALID,38,VALID,0.410156,
2010-04-30, 00:34:04,VALID,1007.09,VALID,0,VALID,96.1315,VALID,0,VALID,24.93,VALID,40,VALID,0.282031,
2010-04-30, 00:35:04,VALID,1007.06,VALID,0,VALID,96.1544,VALID,0,VALID,24.93,VALID,63,VALID,0.639063,
2010-04-30, 00:36:04,VALID,1007.04,VALID,0,VALID,96.1086,VALID,0,VALID,24.93,VALID,68,VALID,0.411328,
2010-04-30, 00:37:04,VALID,1007,VALID,0,VALID,96.0323,VALID,0,VALID,24.9106,VALID,68,VALID,0.291797,
2010-04-30, 00:38:04,VALID,1006.97,VALID,0,VALID,96.0095,VALID,0,VALID,24.9106,VALID,68,VALID,0.238672,
2010-04-30, 00:39:04,VALID,1006.91,VALID,0,VALID,95.9866,VALID,0,VALID,24.9319,VALID,68,VALID,0.256641,
2010-04-30, 00:40:04,VALID,1006.86,VALID,0,VALID,95.9713,VALID,0,VALID,24.9514,VALID,68,VALID,0.377344,
2010-04-30, 00:41:04,VALID,1006.79,VALID,0,VALID,95.9789,VALID,0,VALID,24.9106,VALID,68,VALID,0,
2010-04-30, 00:42:04,VALID,1006.74,VALID,0,VALID,95.9637,VALID,0,VALID,24.9514,VALID,68,VALID,0,
2010-04-30, 00:43:04,VALID,1006.68,VALID,0,VALID,95.9866,VALID,0,VALID,24.9514,VALID,68,VALID,0,
2010-04-30, 00:44:04,VALID,1006.65,VALID,0,VALID,96.0018,VALID,0,VALID,24.9514,VALID,68,VALID,0,
2010-04-30, 00:45:04,VALID,1006.66,VALID,0,VALID,96.0095,VALID,0,VALID,24.9495,VALID,61,VALID,0,
2010-04-30, 00:46:04,VALID,1006.67,VALID,0,VALID,96.0323,VALID,0,VALID,24.9495,VALID,39,VALID,0.791016,
2010-04-30, 00:47:04,VALID,1006.69,VALID,0,VALID,96.0323,VALID,0,VALID,24.9495,VALID,31,VALID,0.531641,
2010-04-30, 00:48:04,VALID,1006.69,VALID,0,VALID,96.0323,VALID,0,VALID,24.9904,VALID,31,VALID,0.409766,
2010-04-30, 00:49:04,VALID,1006.68,VALID,0,VALID,96.0705,VALID,0,VALID,24.969,VALID,31,VALID,0.170703,
2010-04-30, 00:50:04,VALID,1006.67,VALID,0,VALID,96.0857,VALID,0,VALID,24.9671,VALID,31,VALID,0.18125,
2010-04-30, 00:51:04,VALID,1006.64,VALID,0,VALID,96.0781,VALID,0,VALID,25.0079,VALID,31,VALID,0.317187,
2010-04-30, 00:52:04,VALID,1006.61,VALID,0,VALID,96.0934,VALID,0,VALID,25.0274,VALID,31,VALID,0.385156,
2010-04-30, 00:53:04,VALID,1006.57,VALID,0,VALID,96.1086,VALID,0,VALID,25.0469,VALID,31,VALID,0.4125,
2010-04-30, 00:54:04,VALID,1006.55,VALID,0,VALID,96.1086,VALID,0,VALID,25.0663,VALID,31,VALID,0.487891,
2010-04-30, 00:55:04,VALID,1006.52,VALID,0,VALID,96.101,VALID,0,VALID,25.1053,VALID,31,VALID,0.788672,
2010-04-30, 00:56:04,VALID,1006.48,VALID,0,VALID,96.0857,VALID,0,VALID,25.1442,VALID,30,VALID,0.398828,
2010-04-30, 00:57:04,VALID,1006.44,VALID,0,VALID,96.0857,VALID,0,VALID,25.2027,VALID,34,VALID,0.214062,
2010-04-30, 00:58:04,VALID,1006.39,VALID,0,VALID,96.0476,VALID,0,VALID,25.2416,VALID,34,VALID,0.00195313,
2010-04-30, 00:59:04,VALID,1006.36,VALID,0,VALID,96.0095,VALID,0,VALID,25.2416,VALID,34,VALID,0.155078,
2010-04-30, 01:00:04,VALID,1006.38,VALID,0,VALID,95.9866,VALID,0,VALID,25.2611,VALID,34,VALID,0.169531,
2010-04-30, 01:01:04,VALID,1006.37,VALID,0,VALID,95.9561,VALID,0,VALID,25.2806,VALID,34,VALID,0.361328,
2010-04-30, 01:02:04,VALID,1006.39,VALID,0,VALID,95.9332,VALID,0,VALID,25.3,VALID,30,VALID,0.614453,
2010-04-30, 01:03:04,VALID,1006.39,VALID,0,VALID,95.9561,VALID,0,VALID,25.2806,VALID,30,VALID,0.619922,
2010-04-30, 01:04:04,VALID,1006.37,VALID,0,VALID,95.9789,VALID,0,VALID,25.3019,VALID,30,VALID,0.549609,
2010-04-30, 01:05:04,VALID,1006.38,VALID,0.5,VALID,95.9789,VALID,0,VALID,25.2611,VALID,30,VALID,0.244922,
2010-04-30, 01:06:04,VALID,1006.37,VALID,0,VALID,96.0171,VALID,0,VALID,25.2416,VALID,30,VALID,0,
2010-04-30, 01:07:04,VALID,1006.35,VALID,0,VALID,96.0476,VALID,0,VALID,25.2416,VALID,30,VALID,0,
2010-04-30, 01:08:04,VALID,1006.31,VALID,0,VALID,96.0781,VALID,0,VALID,25.2221,VALID,30,VALID,0,
2010-04-30, 01:09:04,VALID,1006.3,VALID,0,VALID,96.0934,VALID,0,VALID,25.2435,VALID,30,VALID,0,
2010-04-30, 01:10:04,VALID,1006.31,VALID,0,VALID,96.1086,VALID,0,VALID,25.2221,VALID,30,VALID,0,
2010-04-30, 01:11:04,VALID,1006.31,VALID,0,VALID,96.1315,VALID,0,VALID,25.2221,VALID,30,VALID,0.354297,
2010-04-30, 01:12:04,VALID,1006.29,VALID,0,VALID,96.1468,VALID,0,VALID,25.1832,VALID,15,VALID,0.799609,
2010-04-30, 01:13:04,VALID,1006.31,VALID,0,VALID,96.1926,VALID,0,VALID,25.2027,VALID,30,VALID,0.701563,
2010-04-30, 01:14:04,VALID,1006.25,VALID,0,VALID,96.2002,VALID,0,VALID,25.2027,VALID,28,VALID,0.299609,
2010-04-30, 01:15:04,VALID,1006.25,VALID,0,VALID,96.2154,VALID,0,VALID,25.2221,VALID,19,VALID,0.485547,
2010-04-30, 01:16:04,VALID,1006.19,VALID,0,VALID,96.2688,VALID,0,VALID,25.2221,VALID,19,VALID,0.103906,
2010-04-30, 01:17:04,VALID,1006.19,VALID,0,VALID,96.2688,VALID,0,VALID,25.2435,VALID,19,VALID,0.0839844,
2010-04-30, 01:18:04,VALID,1006.21,VALID,0,VALID,96.2688,VALID,0,VALID,25.2416,VALID,23,VALID,0.209766,
2010-04-30, 01:19:04,VALID,1006.21,VALID,0,VALID,96.2765,VALID,0,VALID,25.2416,VALID,85,VALID,0.594922,
2010-04-30, 01:20:04,VALID,1006.24,VALID,0,VALID,96.2841,VALID,0,VALID,25.2611,VALID,141,VALID,0.65625,
2010-04-30, 01:21:04,VALID,1006.25,VALID,0,VALID,96.2688,VALID,0,VALID,25.3,VALID,142,VALID,0.517187,
2010-04-30, 01:22:04,VALID,1006.2,VALID,0,VALID,96.2383,VALID,0,VALID,25.3,VALID,142,VALID,0.367188,
2010-04-30, 01:23:04,VALID,1006.17,VALID,0,VALID,96.2536,VALID,0,VALID,25.2806,VALID,142,VALID,0.126172,
2010-04-30, 01:24:04,VALID,1006.14,VALID,0,VALID,96.2612,VALID,0,VALID,25.2611,VALID,142,VALID,0.471094,
2010-04-30, 01:25:04,VALID,1006.11,VALID,0,VALID,96.2231,VALID,0,VALID,25.2806,VALID,17,VALID,0.589844,
2010-04-30, 01:26:04,VALID,1006.07,VALID,0,VALID,96.2383,VALID,0,VALID,25.2416,VALID,12,VALID,0.796094,
2010-04-30, 01:27:04,VALID,1006.02,VALID,0,VALID,96.2536,VALID,0,VALID,25.2416,VALID,7,VALID,0.736328,
2010-04-30, 01:28:04,VALID,1005.98,VALID,0,VALID,96.246,VALID,0,VALID,25.2221,VALID,3,VALID,0.520703,
2010-04-30, 01:29:04,VALID,1005.98,VALID,0,VALID,96.2612,VALID,0,VALID,25.1813,VALID,3,VALID,0.414063,
2010-04-30, 01:30:04,VALID,1005.96,VALID,0,VALID,96.2536,VALID,0,VALID,25.1637,VALID,3,VALID,0.218359,
2010-04-30, 01:31:04,VALID,1005.99,VALID,0,VALID,96.2612,VALID,0,VALID,25.1637,VALID,3,VALID,0.247266,
2010-04-30, 01:32:04,VALID,1005.99,VALID,0,VALID,96.2536,VALID,0,VALID,25.1442,VALID,3,VALID,0.272266,
2010-04-30, 01:33:04,VALID,1006,VALID,0,VALID,96.2994,VALID,0,VALID,25.1442,VALID,3,VALID,0.0117188,
2010-04-30, 01:34:04,VALID,1006.03,VALID,0,VALID,96.307,VALID,0,VALID,25.1442,VALID,3,VALID,0,
2010-04-30, 01:35:04,VALID,1006.04,VALID,0,VALID,96.2994,VALID,0,VALID,25.1248,VALID,3,VALID,0,
2010-04-30, 01:36:04,VALID,1006.04,VALID,0,VALID,96.3146,VALID,0,VALID,25.1053,VALID,3,VALID,0,
2010-04-30, 01:37:04,VALID,1006.03,VALID,0,VALID,96.3375,VALID,0,VALID,25.1442,VALID,3,VALID,0,
2010-04-30, 01:38:04,VALID,1006.05,VALID,0,VALID,96.3451,VALID,0,VALID,25.1442,VALID,3,VALID,0,
2010-04-30, 01:39:04,VALID,1006.04,VALID,0,VALID,96.3756,VALID,0,VALID,25.1053,VALID,3,VALID,0,
2010-04-30, 01:40:04,VALID,1006.06,VALID,0,VALID,96.3604,VALID,0,VALID,25.1053,VALID,4,VALID,0.556641,
2010-04-30, 01:41:04,VALID,1006.09,VALID,0,VALID,96.3833,VALID,0,VALID,25.0663,VALID,18,VALID,0.739062,
2010-04-30, 01:42:04,VALID,1006.12,VALID,0,VALID,96.3909,VALID,0,VALID,25.0877,VALID,20,VALID,0.350391,
2010-04-30, 01:43:04,VALID,1006.13,VALID,0,VALID,96.3909,VALID,0,VALID,25.0255,VALID,20,VALID,0.132422,
2010-04-30, 01:44:04,VALID,1006.15,VALID,0,VALID,96.4214,VALID,0,VALID,25.0274,VALID,20,VALID,0.292188,
2010-04-30, 01:45:04,VALID,1006.18,VALID,0,VALID,96.429,VALID,0,VALID,25.006,VALID,23,VALID,0.283984,
2010-04-30, 01:46:04,VALID,1006.21,VALID,0,VALID,96.429,VALID,0,VALID,24.9866,VALID,60,VALID,0.360156,
2010-04-30, 01:47:04,VALID,1006.21,VALID,0,VALID,96.4214,VALID,0,VALID,25.0079,VALID,60,VALID,0.447656,
2010-04-30, 01:48:04,VALID,1006.2,VALID,0,VALID,96.4443,VALID,0,VALID,24.9885,VALID,64,VALID,0.484375,
2010-04-30, 01:49:04,VALID,1006.22,VALID,0,VALID,96.4672,VALID,0,VALID,25.0079,VALID,105,VALID,0.716797,
2010-04-30, 01:50:04,VALID,1006.21,VALID,0,VALID,96.4825,VALID,0.100563,VALID,25.0274,VALID,135,VALID,0.665625,
2010-04-30, 01:51:04,VALID,1006.21,VALID,0,VALID,96.4901,VALID,0,VALID,25.0255,VALID,135,VALID,0.729297,
2010-04-30, 01:52:04,VALID,1006.18,VALID,0,VALID,96.4901,VALID,0,VALID,25.0469,VALID,135,VALID,0.36875,
2010-04-30, 01:53:04,VALID,1006.14,VALID,0,VALID,96.513,VALID,0,VALID,25.0469,VALID,135,VALID,0.263281,
2010-04-30, 01:54:04,VALID,1006.11,VALID,0,VALID,96.5206,VALID,0,VALID,25.0469,VALID,135,VALID,0,
2010-04-30, 01:55:04,VALID,1006.09,VALID,0,VALID,96.5359,VALID,0,VALID,25.0469,VALID,135,VALID,0,
2010-04-30, 01:56:04,VALID,1006.02,VALID,0,VALID,96.5282,VALID,0,VALID,25.0274,VALID,135,VALID,0.0140625,
2010-04-30, 01:57:04,VALID,1006.01,VALID,0,VALID,96.5206,VALID,0,VALID,25.0488,VALID,85,VALID,0.260156,
2010-04-30, 01:58:04,VALID,1006.01,VALID,0,VALID,96.5511,VALID,0,VALID,25.0274,VALID,45,VALID,0.314063,
2010-04-30, 01:59:04,VALID,1005.99,VALID,0,VALID,96.5511,VALID,0,VALID,25.006,VALID,40,VALID,0.239063,
2010-04-30, 02:00:04,VALID,1005.98,VALID,0,VALID,96.5587,VALID,0,VALID,25.006,VALID,40,VALID,0.0914062,
2010-04-30, 02:01:04,VALID,1005.99,VALID,0,VALID,96.5664,VALID,0.100563,VALID,25.006,VALID,40,VALID,0.430078,
2010-04-30, 02:02:04,VALID,1005.99,VALID,0,VALID,96.5511,VALID,0,VALID,25.0469,VALID,38,VALID,0.489453,
2010-04-30, 02:03:04,VALID,1006.01,VALID,0,VALID,96.5435,VALID,0,VALID,25.0469,VALID,15,VALID,0.719531,
2010-04-30, 02:04:04,VALID,1006.01,VALID,0,VALID,96.5511,VALID,0,VALID,25.0663,VALID,15,VALID,0.817187,
2010-04-30, 02:05:04,VALID,1005.99,VALID,0,VALID,96.5664,VALID,0,VALID,25.0469,VALID,14,VALID,0.716797,
2010-04-30, 02:06:04,VALID,1005.99,VALID,0,VALID,96.574,VALID,0,VALID,25.0488,VALID,355,VALID,0.473047,
2010-04-30, 02:07:04,VALID,1005.93,VALID,0,VALID,96.574,VALID,0,VALID,25.0079,VALID,355,VALID,0.437109,
2010-04-30, 02:08:04,VALID,1005.93,VALID,0,VALID,96.5664,VALID,0,VALID,25.0079,VALID,355,VALID,0.430078,
2010-04-30, 02:09:04,VALID,1005.91,VALID,0,VALID,96.5587,VALID,0.100563,VALID,25.0079,VALID,355,VALID,0.491797,
2010-04-30, 02:10:04,VALID,1005.91,VALID,0,VALID,96.5587,VALID,0,VALID,24.9866,VALID,355,VALID,0.609766,
2010-04-30, 02:11:04,VALID,1005.93,VALID,0,VALID,96.5435,VALID,0,VALID,24.9866,VALID,3,VALID,0.648047,
2010-04-30, 02:12:04,VALID,1005.94,VALID,0,VALID,96.5664,VALID,0,VALID,25.0079,VALID,11,VALID,0.519141,
2010-04-30, 02:13:04,VALID,1005.94,VALID,0,VALID,96.5816,VALID,0,VALID,24.9866,VALID,13,VALID,0.480469,
2010-04-30, 02:14:04,VALID,1005.96,VALID,0,VALID,96.5664,VALID,0,VALID,24.9671,VALID,19,VALID,0.474609,
2010-04-30, 02:15:04,VALID,1005.96,VALID,0,VALID,96.5587,VALID,0,VALID,24.9866,VALID,19,VALID,0.259375,
2010-04-30, 02:16:04,VALID,1005.94,VALID,0,VALID,96.574,VALID,0.100563,VALID,24.9866,VALID,19,VALID,0.271875,
2010-04-30, 02:17:04,VALID,1005.96,VALID,0,VALID,96.5816,VALID,0,VALID,24.9866,VALID,19,VALID,0.250781,
2010-04-30, 02:18:04,VALID,1005.95,VALID,0,VALID,96.5969,VALID,0,VALID,24.9866,VALID,19,VALID,0.326172,
2010-04-30, 02:19:04,VALID,1005.95,VALID,0,VALID,96.5664,VALID,0,VALID,24.9866,VALID,19,VALID,0.377344,
2010-04-30, 02:20:04,VALID,1005.92,VALID,0,VALID,96.5893,VALID,0,VALID,24.9866,VALID,19,VALID,0.353125,
2010-04-30, 02:21:04,VALID,1005.89,VALID,0,VALID,96.6045,VALID,0,VALID,24.9866,VALID,19,VALID,0.399609,
2010-04-30, 02:22:04,VALID,1005.91,VALID,0,VALID,96.6198,VALID,0.100563,VALID,24.9885,VALID,19,VALID,0.205469,
2010-04-30, 02:23:04,VALID,1005.92,VALID,0,VALID,96.6045,VALID,0,VALID,24.9671,VALID,19,VALID,0.355859,
2010-04-30, 02:24:04,VALID,1005.93,VALID,0,VALID,96.6121,VALID,0,VALID,25.006,VALID,19,VALID,0.140234,
2010-04-30, 02:25:04,VALID,1005.94,VALID,0,VALID,96.6274,VALID,0.100563,VALID,25.006,VALID,19,VALID,0.00585938,
2010-04-30, 02:26:04,VALID,1005.97,VALID,0,VALID,96.6274,VALID,0,VALID,25.006,VALID,19,VALID,0,
2010-04-30, 02:27:04,VALID,1005.97,VALID,0,VALID,96.635,VALID,0,VALID,25.0274,VALID,19,VALID,0,
2010-04-30, 02:28:04,VALID,1005.95,VALID,0,VALID,96.6198,VALID,0,VALID,24.9866,VALID,19,VALID,0,
2010-04-30, 02:29:04,VALID,1005.99,VALID,0,VALID,96.6503,VALID,0.100563,VALID,24.9885,VALID,19,VALID,0,
2010-04-30, 02:30:04,VALID,1005.99,VALID,0,VALID,96.6503,VALID,0,VALID,24.969,VALID,19,VALID,0,
2010-04-30, 02:31:04,VALID,1006,VALID,0,VALID,96.6503,VALID,0,VALID,24.9885,VALID,19,VALID,0.152734,
2010-04-30, 02:32:04,VALID,1006,VALID,0,VALID,96.6503,VALID,0,VALID,24.969,VALID,19,VALID,0.216406,
2010-04-30, 02:33:04,VALID,1006,VALID,0,VALID,96.6579,VALID,0,VALID,24.969,VALID,19,VALID,0.141406,
2010-04-30, 02:34:04,VALID,1005.99,VALID,0,VALID,96.6655,VALID,0,VALID,24.9495,VALID,19,VALID,0,
2010-04-30, 02:35:04,VALID,1006.01,VALID,0,VALID,96.6732,VALID,0,VALID,24.9282,VALID,19,VALID,0.0257812,
2010-04-30, 02:36:04,VALID,1005.97,VALID,0,VALID,96.6655,VALID,0,VALID,24.9495,VALID,19,VALID,0,
2010-04-30, 02:37:04,VALID,1006,VALID,0,VALID,96.6503,VALID,0,VALID,24.93,VALID,19,VALID,0.0496094,
2010-04-30, 02:38:04,VALID,1006.01,VALID,0,VALID,96.6732,VALID,0,VALID,24.9106,VALID,19,VALID,0.382422,
2010-04-30, 02:39:04,VALID,1006.01,VALID,0,VALID,96.6732,VALID,0,VALID,24.9106,VALID,19,VALID,0.371875,
2010-04-30, 02:40:04,VALID,1006.03,VALID,0,VALID,96.6655,VALID,0,VALID,24.93,VALID,19,VALID,0.550391,
2010-04-30, 02:41:04,VALID,1006.01,VALID,0,VALID,96.6808,VALID,0,VALID,24.93,VALID,19,VALID,0.488672,
2010-04-30, 02:42:04,VALID,1005.98,VALID,0,VALID,96.6655,VALID,0,VALID,24.93,VALID,19,VALID,0.639063,
2010-04-30, 02:43:04,VALID,1005.99,VALID,0,VALID,96.6808,VALID,0,VALID,24.9319,VALID,19,VALID,0.457422,
2010-04-30, 02:44:04,VALID,1005.95,VALID,0,VALID,96.6961,VALID,0,VALID,24.9106,VALID,19,VALID,0.501953,
2010-04-30, 02:45:04,VALID,1005.93,VALID,0,VALID,96.6808,VALID,0,VALID,24.8911,VALID,19,VALID,0.255859,
2010-04-30, 02:46:04,VALID,1005.9,VALID,0,VALID,96.6884,VALID,0,VALID,24.8911,VALID,19,VALID,0.34375,
2010-04-30, 02:47:04,VALID,1005.88,VALID,0,VALID,96.6884,VALID,0,VALID,24.9106,VALID,19,VALID,0.194141,
2010-04-30, 02:48:04,VALID,1005.87,VALID,0,VALID,96.6884,VALID,0,VALID,24.9087,VALID,19,VALID,0.252734,
2010-04-30, 02:49:04,VALID,1005.88,VALID,0,VALID,96.6961,VALID,0.100563,VALID,24.9282,VALID,19,VALID,0.291406,
2010-04-30, 02:50:04,VALID,1005.86,VALID,0,VALID,96.6961,VALID,0,VALID,24.9068,VALID,19,VALID,0.332422,
2010-04-30, 02:51:04,VALID,1005.87,VALID,0,VALID,96.7037,VALID,0,VALID,24.9282,VALID,19,VALID,0.377734,
2010-04-30, 02:52:04,VALID,1005.86,VALID,0,VALID,96.7113,VALID,0.100563,VALID,24.9282,VALID,19,VALID,0.338672,
2010-04-30, 02:53:04,VALID,1005.85,VALID,0,VALID,96.7113,VALID,0,VALID,24.9495,VALID,19,VALID,0.338281,
2010-04-30, 02:54:04,VALID,1005.84,VALID,0,VALID,96.7037,VALID,0.100563,VALID,24.9282,VALID,19,VALID,0.317187,
2010-04-30, 02:55:04,VALID,1005.85,VALID,0,VALID,96.7113,VALID,0,VALID,24.9068,VALID,19,VALID,0.260547,
2010-04-30, 02:56:04,VALID,1005.8,VALID,0,VALID,96.7037,VALID,0,VALID,24.9476,VALID,19,VALID,0.275,
2010-04-30, 02:57:04,VALID,1005.82,VALID,0,VALID,96.7266,VALID,0,VALID,24.9476,VALID,19,VALID,0.161719,
2010-04-30, 02:58:04,VALID,1005.8,VALID,0,VALID,96.7418,VALID,0,VALID,24.9282,VALID,19,VALID,0.146875,
2010-04-30, 02:59:04,VALID,1005.8,VALID,0,VALID,96.7189,VALID,0,VALID,24.9282,VALID,19,VALID,0,
2010-04-30, 03:00:04,VALID,1005.78,VALID,0,VALID,96.7495,VALID,0,VALID,24.9709,VALID,19,VALID,0.172656,
2010-04-30, 03:01:04,VALID,1005.75,VALID,0,VALID,96.7113,VALID,0,VALID,24.9087,VALID,19,VALID,0,
2010-04-30, 03:02:04,VALID,1005.76,VALID,0,VALID,96.7342,VALID,0,VALID,24.93,VALID,19,VALID,0,
2010-04-30, 03:03:04,VALID,1005.72,VALID,0,VALID,96.7189,VALID,0,VALID,24.93,VALID,19,VALID,0,
2010-04-30, 03:04:04,VALID,1005.71,VALID,0,VALID,96.7495,VALID,0,VALID,24.93,VALID,19,VALID,0,
2010-04-30, 03:05:04,VALID,1005.71,VALID,0,VALID,96.7266,VALID,0,VALID,24.9495,VALID,19,VALID,0,
2010-04-30, 03:06:04,VALID,1005.73,VALID,0,VALID,96.7418,VALID,0,VALID,24.9495,VALID,19,VALID,0,
2010-04-30, 03:07:04,VALID,1005.74,VALID,0,VALID,96.7342,VALID,0,VALID,24.9495,VALID,19,VALID,0.224609,
2010-04-30, 03:08:04,VALID,1005.75,VALID,0,VALID,96.7495,VALID,0,VALID,24.9282,VALID,19,VALID,0.417969,
2010-04-30, 03:09:04,VALID,1005.72,VALID,0,VALID,96.7571,VALID,0,VALID,24.8892,VALID,19,VALID,0.454688,
2010-04-30, 03:10:04,VALID,1005.73,VALID,0,VALID,96.7495,VALID,0,VALID,24.9106,VALID,19,VALID,0.528516,
2010-04-30, 03:11:04,VALID,1005.69,VALID,0,VALID,96.7571,VALID,0,VALID,24.9106,VALID,19,VALID,0.417188,
2010-04-30, 03:12:04,VALID,1005.66,VALID,0,VALID,96.7571,VALID,0,VALID,24.8911,VALID,19,VALID,0.380859,
2010-04-30, 03:13:04,VALID,1005.7,VALID,0,VALID,96.7495,VALID,0,VALID,24.9319,VALID,19,VALID,0.322266,
2010-04-30, 03:14:04,VALID,1005.66,VALID,0,VALID,96.7495,VALID,0,VALID,24.9106,VALID,19,VALID,0.298828,
2010-04-30, 03:15:04,VALID,1005.63,VALID,0,VALID,96.7418,VALID,0,VALID,24.93,VALID,19,VALID,0.230078,
2010-04-30, 03:16:04,VALID,1005.58,VALID,0,VALID,96.7495,VALID,0,VALID,24.93,VALID,19,VALID,0.138672,
2010-04-30, 03:17:04,VALID,1005.6,VALID,0,VALID,96.7571,VALID,0,VALID,24.93,VALID,19,VALID,0.117969,
2010-04-30, 03:18:04,VALID,1005.57,VALID,0,VALID,96.7723,VALID,0,VALID,24.9495,VALID,19,VALID,0,
2010-04-30, 03:19:04,VALID,1005.58,VALID,0,VALID,96.7647,VALID,0,VALID,24.9495,VALID,19,VALID,0,
2010-04-30, 03:20:04,VALID,1005.57,VALID,0,VALID,96.7723,VALID,0,VALID,24.9709,VALID,19,VALID,0,
2010-04-30, 03:21:04,VALID,1005.6,VALID,0,VALID,96.7647,VALID,0,VALID,24.9495,VALID,19,VALID,0,
2010-04-30, 03:22:04,VALID,1005.59,VALID,0,VALID,96.7571,VALID,0,VALID,24.9495,VALID,19,VALID,0,
2010-04-30, 03:23:04,VALID,1005.61,VALID,0,VALID,96.7647,VALID,0,VALID,24.9495,VALID,19,VALID,0,
2010-04-30, 03:24:04,VALID,1005.62,VALID,0,VALID,96.7723,VALID,0,VALID,24.9495,VALID,19,VALID,0,
2010-04-30, 03:25:04,VALID,1005.66,VALID,0,VALID,96.7952,VALID,0,VALID,24.9709,VALID,19,VALID,0,
2010-04-30, 03:26:04,VALID,1005.67,VALID,0,VALID,96.7723,VALID,0,VALID,24.9495,VALID,19,VALID,0,
2010-04-30, 03:27:04,VALID,1005.7,VALID,0,VALID,96.7723,VALID,0,VALID,24.9709,VALID,19,VALID,0,
2010-04-30, 03:28:04,VALID,1005.69,VALID,0,VALID,96.7571,VALID,0,VALID,24.9495,VALID,19,VALID,0,
2010-04-30, 03:29:04,VALID,1005.69,VALID,0,VALID,96.7876,VALID,0,VALID,24.9709,VALID,19,VALID,0,
2010-04-30, 03:30:04,VALID,1005.67,VALID,0,VALID,96.7876,VALID,0,VALID,24.969,VALID,19,VALID,0,
2010-04-30, 03:31:04,VALID,1005.71,VALID,0,VALID,96.7647,VALID,0,VALID,24.9282,VALID,19,VALID,0,
2010-04-30, 03:32:04,VALID,1005.73,VALID,0,VALID,96.7647,VALID,0,VALID,24.9476,VALID,19,VALID,0,
2010-04-30, 03:33:04,VALID,1005.75,VALID,0,VALID,96.7876,VALID,0.100563,VALID,24.9671,VALID,19,VALID,0,
2010-04-30, 03:34:04,VALID,1005.78,VALID,0,VALID,96.7647,VALID,0,VALID,24.9866,VALID,19,VALID,0,
2010-04-30, 03:35:04,VALID,1005.83,VALID,0,VALID,96.7876,VALID,0.100563,VALID,24.9866,VALID,19,VALID,0.407813,
2010-04-30, 03:36:04,VALID,1005.83,VALID,0,VALID,96.7723,VALID,0.100563,VALID,24.9866,VALID,19,VALID,0.409766,
2010-04-30, 03:37:04,VALID,1005.87,VALID,0,VALID,96.7723,VALID,0,VALID,24.9671,VALID,19,VALID,0.397656,
2010-04-30, 03:38:04,VALID,1005.93,VALID,0,VALID,96.7876,VALID,0.100563,VALID,24.9476,VALID,19,VALID,0.175781,
2010-04-30, 03:39:04,VALID,1005.92,VALID,0,VALID,96.8029,VALID,0.100563,VALID,24.9495,VALID,19,VALID,0,
2010-04-30, 03:40:04,VALID,1005.95,VALID,0,VALID,96.8105,VALID,0,VALID,24.9087,VALID,19,VALID,0.240234,
2010-04-30, 03:41:04,VALID,1005.98,VALID,0,VALID,96.8181,VALID,0,VALID,24.8697,VALID,19,VALID,0.474219,
2010-04-30, 03:42:04,VALID,1005.98,VALID,0,VALID,96.8258,VALID,0,VALID,24.8697,VALID,19,VALID,0.340234,
2010-04-30, 03:43:04,VALID,1006.01,VALID,0,VALID,96.8029,VALID,0.100563,VALID,24.8697,VALID,19,VALID,0.338672,
2010-04-30, 03:44:04,VALID,1006.04,VALID,0,VALID,96.8029,VALID,0.100563,VALID,24.8892,VALID,19,VALID,0.443359,
2010-04-30, 03:45:04,VALID,1006.08,VALID,0,VALID,96.7876,VALID,0.100563,VALID,24.9087,VALID,19,VALID,0.426562,
2010-04-30, 03:46:04,VALID,1006.09,VALID,0,VALID,96.78,VALID,0.100563,VALID,24.9282,VALID,19,VALID,0.176563,
2010-04-30, 03:47:04,VALID,1006.11,VALID,0,VALID,96.7952,VALID,0,VALID,24.9476,VALID,19,VALID,0,
2010-04-30, 03:48:04,VALID,1006.09,VALID,0,VALID,96.7952,VALID,0.100563,VALID,24.9282,VALID,19,VALID,0,